[[{"header":{"parameterUnit":"m.s-1","parameterCategory":1,"la1":30.2991,"la2":30.254,"lo1":-89.0895,"lo2":-89.0444,"dy":0.0017,"dx":0.0017,"nx":28,"ny":28,"refTime":"2025-07-28T21:00:00:Z","depth":0,"parameterNumber":2,"parameterNumberName":"U-component_of_WINDS"},"data":[0,0,0,0,0,0,0,0,0,0,0,0,0,0,0,0,0,0,0,0,0,0,0,0,0,0,0,0,0,0,0,0,0,0,0,0,0,0,0,0,0,0,0,0,0,0,0,0,0,0,0,0,0,0,0,0,0,0,2.2227,2.2222,0,2.1736,2.173,2.1725,2.1353,2.1349,2.1346,2.1343,2.0824,2.0814,2.0803,0,0,0,0,0,0,0,0,0,0,0,0,0,2.2833,2.2824,2.2228,2.2222,2.2216,2.1737,2.173,2.1723,2.1353,2.1349,2.1345,2.1341,2.0828,2.0815,2.0802,0,0,0,0,0,0,0,0,0,0,0,0,0,2.2479,2.2821,2.2229,2.1973,2.1946,2.1738,2.173,2.1722,2.1354,2.1349,2.1344,2.1339,2.0832,2.0816,2.08,2.0803,0,0,2.0752,2.0745,0,0,0,0,0,0,0,0,2.2499,2.2457,2.2017,2.1991,2.1959,2.1601,2.1753,2.1413,2.1355,2.1578,2.1343,2.1337,2.1086,2.1048,2.0967,2.0778,2.0756,2.075,2.074,2.0734,2.0729,0,0,0,0,0,0,0,2.2524,2.2476,2.2032,2.2011,2.1976,2.1879,2.1823,2.1687,2.1366,2.1558,2.153,2.1478,2.1069,2.0983,2.0952,2.0748,2.0751,2.0736,2.0727,2.072,2.0539,2.0543,0,0,0,0,0,0,2.2591,2.2499,2.2048,2.2018,2.2223,2.1873,2.181,2.1721,2.1366,2.1308,2.1483,2.1463,2.1013,2.0971,2.0932,2.0912,2.0734,2.0719,2.0709,2.0534,2.054,2.0545,0,0,0,0,0,0,2.2605,2.2554,2.2068,2.2251,2.2181,2.1868,2.177,2.1714,2.1628,2.1309,2.1249,2.1455,2.1007,2.0955,2.0839,2.0889,2.0711,2.0697,2.0529,2.0536,2.0543,2.0874,0,0,0,0,0,0,2.2624,2.2562,2.2562,2.2254,2.2173,2.1988,2.1773,2.1708,2.1603,2.1572,2.1267,2.1212,2.0999,2.0865,2.0824,2.0864,2.0684,2.0522,2.0532,2.054,2.0857,2.0891,2.0921,0,0,0,0,0,2.2647,2.267,2.2564,2.2511,2.2168,2.1992,2.1945,2.1704,2.1609,2.1604,2.1401,2.1222,2.0892,2.0857,2.0806,2.0843,2.0518,2.0529,2.054,2.0843,2.0885,2.092,0,0,0,0,0,0,2.2985,2.2625,2.2502,2.2428,2.2245,2.1929,2.1916,2.1756,2.1591,2.1568,2.1271,2.1206,2.1122,2.0969,2.0937,2.0827,2.0682,2.0684,2.093,2.0967,2.0999,2.1036,2.0671,0,0,0,0,0,2.3053,2.2945,2.2633,2.2597,2.2512,2.2233,2.2146,2.1978,2.1772,2.1691,2.1478,2.1282,2.1134,2.1042,2.0887,2.0834,2.0762,2.0835,2.0867,2.0895,2.0898,2.086,2.0889,2.058,2.058,2.058,0,0,2.3188,2.2978,2.2926,2.2661,2.2498,2.2389,2.2168,2.2061,2.1976,2.1672,2.1552,2.1391,2.1152,2.1069,2.1021,2.0939,2.0969,2.0909,2.0933,2.0921,2.0874,2.0904,2.093,2.0588,2.0586,2.0585,0,0,2.3378,2.321,2.3162,2.3007,2.2766,2.258,2.2571,2.228,2.2163,2.204,2.181,2.1703,2.1454,2.1294,2.1181,2.1319,2.1148,2.1277,2.1443,2.1409,2.1433,2.1453,2.1502,2.1524,2.1282,2.1283,2.1283,0,2.3575,2.3406,2.3157,2.3066,2.2955,2.2683,2.2632,2.249,2.2211,2.2139,2.2054,2.1739,2.1558,2.1435,2.147,2.1387,2.1364,2.1309,2.1451,2.1469,2.1483,2.1527,2.1546,2.13,2.1298,2.1296,2.1295,0,2.366,2.3547,2.3537,2.3282,2.317,2.3099,2.2837,2.2753,2.2596,2.2419,2.2297,2.2073,2.187,2.1828,2.167,2.1683,2.164,2.1508,2.1355,2.1535,2.157,2.1585,2.1325,2.1319,2.1314,2.1309,0,0,2.4045,2.3659,2.3659,2.3541,2.3259,2.3164,2.3081,2.2889,2.2823,2.264,2.2562,2.2361,2.2238,2.211,2.1932,2.1903,2.2028,2.1772,2.1762,2.1827,2.2028,2.213,2.2153,2.1915,2.1917,2.1918,2.2048,0,2.4191,2.4033,2.3809,2.3723,2.3615,2.3358,2.3285,2.3103,2.2937,2.2818,2.263,2.2494,2.2342,2.2263,2.2223,2.2022,2.2064,2.2009,2.1835,2.1832,2.1902,2.2171,2.2276,2.2409,2.206,2.2062,2.2064,0,2.4338,2.4178,2.4086,2.3816,2.3762,2.3702,2.3509,2.34,2.3188,2.3068,2.2931,2.274,2.2636,2.2503,2.2355,2.2323,2.2239,2.213,2.2129,2.2101,2.1958,2.215,2.2445,2.2466,2.2083,2.2082,2.208,0,2.463,2.439,2.4303,2.421,2.3893,2.3858,2.3723,2.3506,2.3407,2.3237,2.3169,2.2989,2.2889,2.2752,2.2518,2.2442,2.2396,2.2241,2.2291,2.2297,2.229,2.2293,2.2576,2.224,2.224,2.2239,2.2239,0,2.4815,2.4768,2.4431,2.4377,2.4317,2.4059,2.4004,2.3845,2.3656,2.3565,2.333,2.3248,2.2945,2.2827,2.2642,2.2548,2.2504,2.2403,2.2354,2.2423,2.2437,2.2362,2.2346,2.2244,2.2243,2.2242,2.2241,0,2.5128,2.4901,2.479,2.4503,2.4429,2.4398,2.4149,2.4086,2.3909,2.3797,2.3755,2.3475,2.3324,2.3079,2.2854,2.273,2.2669,2.2588,2.2744,2.2713,2.2777,2.2775,2.3019,2.3038,2.2695,2.2699,2.2702,0,2.5261,2.522,2.4931,2.4857,2.4733,2.4615,2.4514,2.4259,2.4163,2.3922,2.3888,2.3722,2.3574,2.3345,2.3118,2.2946,2.2858,2.2956,2.283,2.2902,2.2858,2.2864,2.2858,2.2985,2.299,2.2994,2.2997,0,2.5521,2.5412,2.5279,2.5109,2.4998,2.4849,2.4688,2.4639,2.4347,2.4251,2.4099,2.3986,2.3761,2.3597,2.3395,2.3249,2.3075,2.304,2.3042,2.3111,2.3203,2.3154,2.2822,2.3034,2.3031,2.3028,2.3026,2.3024,2.5746,2.5699,2.5491,2.5351,2.5205,2.5062,2.4991,2.4808,2.4678,2.4479,2.4336,2.4193,2.3982,2.3693,2.356,2.3441,2.3363,2.3366,2.3366,2.3371,2.3398,2.3226,2.3403,2.3402,2.34,2.3399,2.3398,0,2.5994,2.5849,2.5724,2.5511,2.5401,2.5254,2.5069,2.4986,2.4866,2.4687,2.455,2.4375,2.4217,2.3981,2.3804,2.3755,2.367,2.3717,2.3716,2.3686,2.3478,2.3494,2.3788,2.3788,2.3788,2.3788,2.3788,2.3788,2.611,2.6023,2.5891,2.5729,2.5581,2.5446,2.5353,2.5219,2.5076,2.4894,2.4764,2.4614,2.4412,2.4219,2.4066,2.4,2.3945,2.4018,2.3927,2.3736,2.37,2.3666,2.3679,2.4008,2.4008,2.4144,2.4145,2.4146]},{"header":{"parameterUnit":"m.s-1","parameterCategory":1,"la1":30.2991,"la2":30.254,"lo1":-89.0895,"lo2":-89.0444,"dy":0.0017,"dx":0.0017,"nx":28,"ny":28,"refTime":"2025-07-28T21:00:00:Z","depth":0,"parameterNumber":3,"parameterNumberName":"V-component_of_WINDS"},"data":[0,0,0,0,0,0,0,0,0,0,0,0,0,0,0,0,0,0,0,0,0,0,0,0,0,0,0,0,0,0,0,0,0,0,0,0,0,0,0,0,0,0,0,0,0,0,0,0,0,0,0,0,0,0,0,0,0,0,0.2574,0.2575,0,0.2671,0.2672,0.2673,0.2714,0.2713,0.2713,0.2713,0.2811,0.2814,0.2817,0,0,0,0,0,0,0,0,0,0,0,0,0,0.242,0.2422,0.2574,0.2575,0.2576,0.2671,0.2672,0.2674,0.2714,0.2713,0.2713,0.2713,0.281,0.2813,0.2817,0,0,0,0,0,0,0,0,0,0,0,0,0,0.2499,0.2423,0.2574,0.2608,0.2612,0.2671,0.2672,0.2674,0.2714,0.2713,0.2713,0.2713,0.2809,0.2813,0.2817,0.2849,0,0,0.283,0.2832,0,0,0,0,0,0,0,0,0.2494,0.2504,0.2601,0.2605,0.261,0.268,0.2654,0.2733,0.2714,0.2675,0.2713,0.2713,0.2768,0.2775,0.2794,0.2854,0.2858,0.2831,0.2833,0.2835,0.2836,0,0,0,0,0,0,0,0.2489,0.25,0.2612,0.2603,0.2608,0.2617,0.2628,0.2669,0.2722,0.2678,0.2681,0.2692,0.277,0.279,0.2797,0.286,0.283,0.2834,0.2837,0.2838,0.2947,0.2948,0,0,0,0,0,0,0.2478,0.2495,0.2609,0.2615,0.255,0.262,0.2632,0.2658,0.2721,0.2731,0.2693,0.2694,0.2783,0.2792,0.28,0.2841,0.2835,0.2839,0.2841,0.2947,0.2948,0.2948,0,0,0,0,0,0,0.2474,0.2488,0.2605,0.2556,0.2572,0.2623,0.2651,0.266,0.268,0.2732,0.2742,0.2704,0.2783,0.2794,0.2836,0.2844,0.2841,0.2844,0.2947,0.2947,0.2948,0.2922,0,0,0,0,0,0,0.247,0.2486,0.25,0.2556,0.2574,0.2641,0.2652,0.2662,0.2687,0.269,0.2745,0.2754,0.2784,0.283,0.284,0.285,0.2848,0.2946,0.2947,0.2948,0.2922,0.2921,0.2921,0,0,0,0,0,0.2464,0.2489,0.25,0.2514,0.2593,0.2641,0.2651,0.2686,0.2688,0.2701,0.2734,0.2752,0.2842,0.2834,0.2846,0.2857,0.2946,0.2947,0.2948,0.2923,0.2922,0.2921,0,0,0,0,0,0,0.2433,0.2497,0.251,0.2554,0.2592,0.2648,0.2666,0.2684,0.2722,0.2722,0.2763,0.2775,0.2813,0.2839,0.2829,0.289,0.2895,0.2898,0.2872,0.2871,0.2871,0.2863,0.2851,0,0,0,0,0,0.2431,0.2465,0.252,0.2553,0.2571,0.2615,0.2638,0.266,0.2701,0.2717,0.2753,0.2791,0.2827,0.2851,0.2887,0.2926,0.2937,0.2939,0.2938,0.2938,0.294,0.296,0.2961,0.2951,0.2951,0.2951,0,0,0.2427,0.2467,0.2486,0.2548,0.2579,0.2613,0.2628,0.2664,0.2689,0.2722,0.2764,0.2791,0.2836,0.2876,0.2895,0.2899,0.2945,0.2939,0.2938,0.2941,0.2961,0.2962,0.2963,0.2951,0.2951,0.2951,0,0,0.2438,0.2472,0.2503,0.2534,0.2581,0.261,0.2617,0.267,0.269,0.2732,0.2756,0.2786,0.2849,0.2879,0.2902,0.2921,0.2938,0.2932,0.2928,0.2947,0.2948,0.2949,0.2955,0.2956,0.2934,0.2934,0.2934,0,0.2428,0.2481,0.2516,0.255,0.2576,0.2606,0.2636,0.2665,0.2722,0.2738,0.2741,0.2819,0.2851,0.2897,0.2901,0.292,0.2928,0.2926,0.2945,0.2947,0.2948,0.2954,0.2956,0.2933,0.2933,0.2933,0.2933,0,0.2465,0.2501,0.252,0.2574,0.2601,0.2633,0.2672,0.2695,0.2714,0.2742,0.2783,0.2823,0.2867,0.2879,0.2899,0.2927,0.2928,0.2938,0.2944,0.2947,0.2953,0.2956,0.2931,0.2931,0.2932,0.2932,0,0,0.2462,0.2532,0.2539,0.2562,0.2615,0.2644,0.2675,0.2719,0.2737,0.2774,0.2801,0.2852,0.286,0.2887,0.291,0.2926,0.2937,0.2934,0.2936,0.2932,0.2968,0.2961,0.2963,0.2948,0.2948,0.2949,0.2964,0,0.2479,0.2539,0.257,0.2616,0.2648,0.2676,0.2704,0.2739,0.2765,0.2795,0.2823,0.2858,0.2868,0.2883,0.2901,0.2932,0.2944,0.2931,0.2972,0.2973,0.2961,0.2966,0.2959,0.2972,0.2967,0.2967,0.2968,0,0.2509,0.2545,0.2594,0.2641,0.2656,0.268,0.2721,0.275,0.2789,0.2806,0.2834,0.2856,0.2889,0.2892,0.2937,0.2927,0.2945,0.2962,0.2963,0.2969,0.2971,0.2971,0.2977,0.2979,0.2972,0.2972,0.2971,0,0.2499,0.256,0.2597,0.2617,0.2673,0.2689,0.2713,0.2752,0.2775,0.281,0.2825,0.2863,0.2884,0.2912,0.2943,0.2942,0.2984,0.2989,0.2998,0.2997,0.3007,0.3006,0.3015,0.3018,0.3018,0.3018,0.3018,0,0.2516,0.2544,0.2593,0.2616,0.2648,0.2683,0.2713,0.2739,0.2773,0.28,0.2826,0.285,0.289,0.2919,0.2943,0.2975,0.2985,0.2999,0.3005,0.2996,0.2994,0.3009,0.3009,0.3019,0.3019,0.3019,0.3018,0,0.2512,0.2546,0.2587,0.2636,0.2649,0.2671,0.2712,0.2734,0.276,0.2794,0.2804,0.2845,0.288,0.2913,0.296,0.2976,0.3008,0.3017,0.2995,0.2999,0.3006,0.3004,0.3025,0.3029,0.3029,0.3029,0.3029,0,0.252,0.2542,0.2593,0.2613,0.2637,0.2669,0.2692,0.2726,0.2749,0.2793,0.2809,0.2846,0.2878,0.2932,0.2965,0.3001,0.3009,0.3014,0.3015,0.3005,0.3009,0.3007,0.3009,0.3013,0.3013,0.3013,0.3013,0,0.2531,0.2546,0.2579,0.2616,0.2643,0.2675,0.2707,0.2722,0.2761,0.2785,0.2821,0.2846,0.2893,0.2928,0.2967,0.299,0.3008,0.3012,0.3016,0.3008,0.2995,0.3001,0.2993,0.3012,0.3012,0.3012,0.3012,0.3012,0.2533,0.2553,0.2592,0.2627,0.2654,0.2683,0.2706,0.2734,0.2765,0.2806,0.2824,0.286,0.2896,0.2949,0.2972,0.3,0.3004,0.301,0.3011,0.3012,0.301,0.299,0.3007,0.3007,0.3007,0.3007,0.3007,0,0.2544,0.257,0.2601,0.2645,0.2672,0.2686,0.2721,0.2743,0.2774,0.2806,0.2836,0.2876,0.2911,0.2945,0.2981,0.2996,0.3005,0.3004,0.3004,0.3008,0.3005,0.2998,0.2997,0.2997,0.2997,0.2997,0.2997,0.2997,0.2553,0.2588,0.2607,0.2655,0.268,0.2716,0.2735,0.2761,0.2787,0.2831,0.2859,0.2882,0.2914,0.2952,0.2983,0.2992,0.3004,0.3001,0.3012,0.3008,0.3009,0.301,0.3003,0.3003,0.3003,0.3014,0.3014,0.3014]}]]